Home > Weather > Munich > Past weeks

Flag for Germany Weather for the Past 2 Weeks in Munich, Bavaria, Germany

Now
28 °F

Fog.


Feels Like: 28 °F
Forecast: 31 / 50 °F
Wind: 2 mph from North

Location: Munich / Franz Josef Strauss Airport

Current Time: Feb 6, 2016 at 8:31:33 AM

Latest Report: Feb 6, 2016 at 7:50 AM


Visibility: 5 mi

Pressure: 30.15 "Hg (28.22 "Hg at 526m altitude)

Humidity: 100%

Dew point: 28 °F

Location of MunichLocation

Historic Weather in Munich — Graph

°F

Munich Temperature Yesterday

Maximum temperature yesterday: 45 °F (at 2:20 PM)
Minimum temperature yesterday: 32 °F (at 11:50 PM)
Average temperature yesterday: 39 °F

High & Low Weather Summary for the Past Weeks

 TemperatureHumidityPressure
High57 °F (Jan 26, 2:50 PM)100% (Jan 22, 7:20 AM)30.63 "Hg (Jan 22, 7:20 AM)
Low7 °F (Jan 22, 10:20 PM)47% (Jan 28, 11:20 AM)29.86 "Hg (Jan 30, 10:50 PM)
Average39 °F86%30.26 "Hg
* Reported Jan 22 7:20 AM — Feb 6 7:20 AM, Munich, Weather by CustomWeather, © 2016

Note: Actual official high and low records may vary slightly from our data, if they occured in-between our weather recording intervals... More about our weather records

Advertising

Munich Weather History for the Previous 24 Hours

 ConditionsComfort  
Time TempWeatherWind HumidityBarometerVisibility
7:20 AM
Sat, Feb 6
27 °FFog.3 mph100%30.15 "Hg5 mi
6:50 AM28 °FSnow. Overcast.1 mph100%30.15 "Hg4 mi
6:20 AM28 °FChilly.2 mph100%30.15 "Hg2 mi
5:50 AM28 °FSnow. Overcast.2 mph100%30.15 "Hg1 mi
5:20 AM28 °FChilly.2 mph100%30.18 "Hg1 mi
4:50 AM28 °FSnow. Overcast.3 mph100%30.18 "Hg1 mi
4:20 AM28 °FChilly.3 mph100%30.18 "Hg1 mi
3:50 AM27 °FChilly.2 mph100%30.18 "Hg4 mi
3:20 AM28 °FChilly.2 mph100%30.18 "HgN/A
2:50 AM28 °FChilly.1 mph100%30.21 "HgN/A
2:20 AM28 °FChilly.3 mph100%30.21 "HgN/A
1:20 AM28 °FChilly.2 mph100%30.21 "HgN/A
12:50 AM30 °FChilly.3 mph100%30.24 "HgN/A
12:20 AM30 °FChilly.3 mph100%30.24 "HgN/A
11:50 PM
Fri, Feb 5
32 °FChilly.3 mph100%30.24 "HgN/A
11:20 PM34 °FFog.3 mph100%30.24 "HgN/A
10:50 PM34 °FFog.3 mph100%30.27 "HgN/A
10:20 PM37 °FFog.6 mph100%30.27 "HgN/A
9:50 PM36 °FFog.3 mph100%30.27 "HgN/A
9:20 PM37 °FPassing clouds.5 mph93%30.27 "HgN/A
8:50 PM36 °FClear.6 mph100%30.30 "Hg10 mi
8:20 PM37 °FClear.5 mph93%30.30 "Hg10 mi
7:50 PM41 °FClear.5 mph87%30.30 "Hg10 mi
7:20 PM43 °FClear.2 mph81%30.30 "Hg10 mi
6:50 PM43 °FClear.2 mph81%30.30 "Hg10 mi
6:20 PM45 °FPassing clouds.6 mph76%30.30 "HgN/A
5:50 PM45 °FClear.6 mph81%30.30 "Hg10 mi
5:20 PM45 °FPassing clouds.2 mph76%30.30 "HgN/A
4:50 PM45 °FPartly sunny.5 mph76%30.30 "HgN/A
4:20 PM45 °FPartly sunny.8 mph76%30.30 "HgN/A
3:50 PM45 °FPartly sunny.10 mph76%30.30 "HgN/A
3:20 PM45 °FPartly sunny.13 mph76%30.30 "HgN/A
2:50 PM45 °FBroken clouds.14 mph76%30.30 "HgN/A
2:20 PM45 °FPartly sunny.12 mph76%30.30 "HgN/A
1:50 PM43 °FBroken clouds.13 mph81%30.33 "HgN/A
1:20 PM43 °FBroken clouds.12 mph81%30.33 "HgN/A
12:50 PM43 °FScattered clouds.7 mph81%30.33 "HgN/A
12:20 PM41 °FPartly sunny.5 mph87%30.36 "HgN/A
11:50 AM39 °FBroken clouds.3 mph93%30.36 "HgN/A
11:20 AM37 °FBroken clouds.5 mph93%30.39 "HgN/A
10:50 AM36 °FPartly sunny.5 mph93%30.39 "HgN/A
10:20 AM36 °FBroken clouds.6 mph87%30.39 "HgN/A
9:50 AM36 °FPartly sunny.3 mph87%30.39 "HgN/A
9:20 AM36 °FBroken clouds.2 mph87%30.39 "HgN/A
8:50 AM36 °FBroken clouds.1 mph87%30.36 "HgN/A
8:20 AM36 °FBroken clouds.1 mph87%30.36 "HgN/A
Weather by CustomWeather, © 2016

See weather overviewHow to use our weather pages